Kezdőlap
METAR-TAF:

METAR-TAF

Repülőterek :

Flying Cloud Airport

Minneapolis-Eden Prairie, Minnesota, Amerikai Egyesült Államok

földrajzi szélesség: 44-49-56N, földrajzi hosszúság: 093-28-13W, magasság: 287 m

Jelenlegi meteorológiai megfigyelések

A jelentés 21 perccel ezelõtt készült, 16:53 UTC
Déli szél 10 kt széllökések: 18 kt
Hőmérséklet 27°C
Páratartalom 74%
Légköri nyomás 1016 hPa
Látótávolság: 16.1 km
Borult 1900 lábon

METAR: KFCM 131653Z 19010G18KT 10SM OVC019 27/22 A3000 RMK AO2 SLP153 T02670222

Idő: 12:14 (17:14 UTC)


TAF: hiányzik

Meteorológiai megfigyelések és előrejelzések több, mint 4000 repülőtéren (METAR és TAF jelentéseket).

A térképen piros és sárga pontok jelzik az elérhető meteorológiai állomásokat.

Mozgassa az egeret a pont fölött, hogy megjelenjen az állomás neve.

Azután kattintson az időjárási megfigyelések és előrejelzések megtekintéséhez.

A térkép megváltoztatása: kattintson a fekete keresztel jelölt zöld gombra ráközelítéshez, a vonallal jelölt zöld gombra távolításhoz, vagy a zöld nyilakra a szomszédos térképek eléréséhez.


METAR-TAF: